KB1JLI Weather Reports


time (UTC)temp
C
wind
direction
speed
KPH
gust
KPH
rain 1hr
cm
rain 24hr
cm
rain mn
cm
humidity
%
barometer
mb
20260507212241 16 322 4.8 9.7 0.00 0.08 0.08 33 1005.3
20260507211738 16 9 6.4 9.7 0.00 0.08 0.08 34 1005.3
20260507211234 16 290 4.8 6.4 0.00 0.08 0.08 32 1005.4
20260507210731 16 19 6.4 9.7 0.00 0.08 0.08 33 1005.2
20260507210228 16 110 1.6 3.2 0.00 0.08 0.08 33 1005.4
20260507205724 16 231 3.2 6.4 0.00 0.08 0.08 32 1005.4
20260507205221 16 207 3.2 4.8 0.00 0.08 0.08 32 1005.1
20260507204717 17 298 8.0 14.5 0.00 0.08 0.08 31 1005.3
20260507204216 16 188 4.8 6.4 0.00 0.08 0.08 33 1005.4
20260507203713 16 247 3.2 11.3 0.00 0.08 0.08 32 1005.0
20260507203210 17 222 4.8 6.4 0.00 0.08 0.08 32 1005.2
20260507202706 16 2 4.8 9.7 0.00 0.08 0.08 33 1005.3
20260507202202 17 9 3.2 11.3 0.00 0.08 0.08 31 1005.4
20260507201657 17 352 1.6 4.8 0.00 0.08 0.08 31 1005.2
20260507201155 17 281 3.2 6.4 0.00 0.08 0.08 30 1005.3
20260507200651 17 325 6.4 6.4 0.00 0.08 0.08 30 1005.2
20260507200147 17 340 3.2 14.5 0.00 0.08 0.08 30 1005.3
20260507195643 17 209 0.0 4.8 0.00 0.08 0.08 29 1005.6
20260507195141 17 8 6.4 9.7 0.00 0.08 0.08 31 1005.6
20260507194637 17 204 4.8 9.7 0.00 0.08 0.08 29 1005.6
20260507194133 17 220 0.0 4.8 0.00 0.08 0.08 30 1005.5
20260507193630 17 14 6.4 6.4 0.00 0.08 0.08 29 1005.6
20260507193128 17 346 4.8 14.5 0.00 0.08 0.08 31 1005.5
20260507192623 17 212 1.6 6.4 0.00 0.08 0.08 30 1005.7
20260507192121 17 290 3.2 11.3 0.00 0.08 0.08 31 1005.7
20260507191616 17 281 1.6 9.7 0.00 0.08 0.08 30 1005.7
20260507191113 17 249 1.6 6.4 0.00 0.08 0.08 29 1005.9
20260507190610 17 265 3.2 11.3 0.00 0.08 0.08 30 1005.9
20260507190109 17 281 1.6 11.3 0.00 0.08 0.08 29 1005.9
20260507185607 18 243 1.6 6.4 0.00 0.08 0.08 30 1005.7
20260507185103 18 217 1.6 6.4 0.00 0.08 0.08 29 1005.8
20260507184601 18 191 8.0 11.3 0.00 0.08 0.08 28 1006.0
20260507184059 18 320 3.2 6.4 0.00 0.08 0.08 32 1005.9
20260507183555 17 82 1.6 3.2 0.00 0.08 0.08 33 1005.7
20260507183052 17 352 3.2 6.4 0.00 0.08 0.08 29 1005.9
20260507182548 17 226 1.6 11.3 0.00 0.08 0.08 30 1005.9
20260507182044 18 216 3.2 4.8 0.00 0.08 0.08 31 1006.0
20260507181542 17 306 6.4 9.7 0.00 0.08 0.08 30 1005.9
20260507181037 17 340 9.7 12.9 0.00 0.08 0.08 31 1006.0
20260507180534 17 323 1.6 6.4 0.00 0.08 0.08 33 1006.1
20260507180031 17 43 3.2 11.3 0.00 0.08 0.08 31 1006.3
20260507175527 17 17 9.7 16.1 0.00 0.08 0.08 30 1006.1
20260507175025 16 39 3.2 4.8 0.00 0.08 0.08 33 1006.2
20260507174522 17 351 1.6 11.3 0.00 0.08 0.08 33 1005.9
20260507174020 17 340 6.4 6.4 0.00 0.08 0.08 33 1006.1
20260507173516 17 31 4.8 6.4 0.00 0.08 0.08 35 1005.8
20260507173014 17 294 1.6 4.8 0.00 0.08 0.08 35 1005.9
20260507172509 17 23 6.4 9.7 0.00 0.08 0.08 36 1006.2
20260507172006 17 330 3.2 6.4 0.00 0.08 0.08 34 1006.3
20260507171502 16 209 1.6 9.7 0.00 0.08 0.08 36 1006.3
20260507171000 16 299 9.7 12.9 0.00 0.08 0.08 36 1006.7
20260507170456 15 288 1.6 6.4 0.00 0.08 0.08 39 1006.5
20260507165952 16 43 3.2 11.3 0.00 0.08 0.08 39 1006.6
20260507165448 16 268 6.4 11.3 0.00 0.08 0.08 40 1006.6
20260507164944 16 165 0.0 12.9 0.00 0.08 0.08 44 1006.8
20260507164441 16 222 3.2 9.7 0.00 0.08 0.08 46 1006.7
20260507163938 15 42 6.4 6.4 0.00 0.08 0.08 50 1006.7
20260507163436 15 225 4.8 11.3 0.00 0.08 0.08 52 1006.8
20260507162933 16 148 1.6 6.4 0.00 0.08 0.08 51 1006.8
20260507162428 16 226 3.2 22.5 0.00 0.08 0.08 49 1006.9
20260507161925 16 302 1.6 6.4 0.00 0.08 0.08 52 1007.0
20260507161421 15 284 4.8 6.4 0.00 0.08 0.08 52 1006.8
20260507160918 15 243 4.8 6.4 0.00 0.08 0.08 53 1006.8
20260507160414 15 152 3.2 9.7 0.00 0.08 0.08 52 1006.9
20260507155910 16 17 6.4 6.4 0.00 0.08 0.08 53 1007.1
20260507155406 15 357 3.2 6.4 0.00 0.08 0.08 53 1007.1
20260507154903 15 94 1.6 4.8 0.00 0.08 0.08 53 1007.0
20260507154400 15 174 3.2 9.7 0.00 0.08 0.08 53 1007.0
20260507153951 15 175 9.7 14.5 0.00 0.08 0.08 54 1007.0
20260507153857 15 175 9.7 14.5 0.00 0.08 0.08 54 1007.0
20260507153354 15 206 1.6 6.4 0.00 0.08 0.08 56 1007.1
20260507153217 16 285 1.6 4.8 0.00 0.08 0.08 51 1007.2
20260507152850 16 285 1.6 4.8 0.00 0.08 0.08 51 1007.2
20260507152602 15 261 3.2 4.8 0.00 0.08 0.08 51 1007.3
20260507152347 16 293 3.2 9.7 0.00 0.08 0.08 51 1007.4
20260507151843 15 261 3.2 4.8 0.00 0.08 0.08 51 1007.3
20260507151339 15 238 0.0 9.7 0.00 0.08 0.08 52 1007.5
20260507150836 16 337 6.4 6.4 0.00 0.08 0.08 49 1007.5
20260507150333 15 294 3.2 9.7 0.00 0.08 0.08 50 1007.6
20260507145828 16 348 6.4 11.3 0.00 0.08 0.08 49 1007.7
20260507145320 16 57 1.6 3.2 0.00 0.08 0.08 48 1007.6
20260507144817 16 205 9.7 12.9 0.00 0.08 0.08 47 1007.8
20260507144314 15 343 4.8 6.4 0.00 0.08 0.08 48 1007.7
20260507143810 15 194 11.3 12.9 0.00 0.08 0.08 49 1007.7
20260507143308 15 51 4.8 6.4 0.00 0.08 0.08 51 1007.6
20260507142804 15 135 0.0 1.6 0.00 0.08 0.08 49 1007.6
20260507142300 15 207 1.6 4.8 0.00 0.08 0.08 50 1007.7
20260507141757 14 68 0.0 4.8 0.00 0.08 0.08 54 1007.8
20260507141254 15 309 6.4 9.7 0.00 0.08 0.08 51 1007.6
20260507140750 14 238 3.2 4.8 0.00 0.08 0.08 54 1007.6
20260507140248 15 33 4.8 6.4 0.00 0.08 0.08 52 1007.7
20260507135745 15 198 1.6 4.8 0.00 0.08 0.08 52 1007.6
20260507135242 15 46 1.6 3.2 0.00 0.08 0.08 56 1007.6
20260507134738 14 37 1.6 4.8 0.00 0.08 0.08 60 1007.5
20260507134235 14 122 0.0 3.2 0.00 0.08 0.08 58 1007.6
20260507133730 13 203 4.8 4.8 0.00 0.08 0.08 60 1007.8
20260507133227 13 74 1.6 4.8 0.00 0.08 0.08 62 1007.8
20260507132725 12 350 3.2 4.8 0.00 0.08 0.08 60 1008.0
20260507132222 12 56 1.6 3.2 0.00 0.08 0.08 61 1008.0
20260507131718 13 49 3.2 6.4 0.00 0.08 0.08 61 1007.9
20260507131216 12 28 6.4 6.4 0.00 0.08 0.08 60 1008.0
20260507130712 13 31 3.2 9.7 0.00 0.08 0.08 61 1008.1
20260507130210 12 65 0.0 6.4 0.00 0.08 0.08 62 1008.3
20260507125708 12 49 3.2 4.8 0.00 0.08 0.08 64 1008.2
20260507125206 13 222 4.8 6.4 0.00 0.08 0.08 65 1008.2
20260507124702 12 139 0.0 1.6 0.00 0.08 0.08 65 1008.2
20260507124159 12 155 0.0 1.6 0.00 0.08 0.08 70 1008.1
20260507123658 11 189 0.0 3.2 0.00 0.08 0.08 72 1008.1
20260507123155 11 320 1.6 4.8 0.00 0.08 0.08 72 1008.1
20260507122650 11 319 0.0 3.2 0.00 0.08 0.08 74 1008.3
20260507122146 11 208 0.0 1.6 0.00 0.08 0.08 75 1008.2
20260507121642 11 192 0.0 4.8 0.00 0.08 0.08 74 1008.2
20260507121138 11 26 1.6 4.8 0.00 0.08 0.08 76 1008.1
20260507120634 11 238 3.2 3.2 0.00 0.08 0.08 77 1008.2
20260507120131 11 174 0.0 3.2 0.00 0.08 0.08 77 1008.2
20260507115627 10 242 1.6 3.2 0.00 0.08 0.08 78 1008.3
20260507115123 10 283 3.2 3.2 0.00 0.08 0.08 79 1008.1
20260507114619 10 164 0.0 0.0 0.00 0.08 0.08 80 1007.9
20260507114116 10 240 0.0 1.6 0.00 0.08 0.08 81 1008.3
20260507113614 10 237 0.0 1.6 0.00 0.08 0.08 81 1008.1
20260507113111 10 237 1.6 3.2 0.00 0.08 0.08 81 1008.1
20260507112609 10 166 0.0 0.0 0.00 0.08 0.08 84 1007.9
20260507112105 10 80 0.0 1.6 0.00 0.08 0.08 83 1007.9
20260507111602 9 80 1.6 1.6 0.00 0.08 0.08 84 1007.8
20260507111059 9 113 0.0 0.0 0.00 0.08 0.08 85 1007.8
20260507110555 9 113 0.0 0.0 0.00 0.08 0.08 85 1008.0
20260507110052 9 136 0.0 0.0 0.00 0.08 0.08 84 1008.1
20260507105548 9 241 0.0 3.2 0.00 0.08 0.08 83 1008.1
20260507105044 9 269 1.6 3.2 0.00 0.08 0.08 85 1008.1
20260507104542 9 237 1.6 3.2 0.00 0.08 0.08 86 1007.7
20260507104038 9 296 0.0 3.2 0.00 0.08 0.08 88 1007.5
20260507103534 8 253 1.6 1.6 0.00 0.08 0.08 88 1007.6
20260507103031 8 197 0.0 1.6 0.00 0.08 0.08 90 1007.6
20260507102528 9 90 0.0 1.6 0.00 0.08 0.08 91 1007.2
20260507102024 9 90 0.0 1.6 0.00 0.08 0.08 91 1007.0
20260507101520 9 57 0.0 1.6 0.00 0.08 0.08 91 1007.6
20260507101016 8 219 0.0 0.0 0.00 0.08 0.08 92 1007.6
20260507100514 8 188 1.6 1.6 0.00 0.08 0.08 92 1007.1
20260507100012 9 323 3.2 3.2 0.00 0.08 0.08 92 1007.0
20260507095509 9 267 1.6 3.2 0.00 0.08 0.08 92 1007.3
20260507095005 9 254 0.0 0.0 0.00 0.08 0.08 92 1007.4
20260507094502 9 211 0.0 0.0 0.13 0.08 0.08 91 1007.4
20260507093959 9 201 0.0 0.0 0.13 0.08 0.08 91 1007.5
20260507093456 9 233 1.6 3.2 0.00 0.05 0.05 91 1007.4
20260507092955 9 299 3.2 3.2 0.00 0.05 0.05 91 1007.2
20260507092450 9 245 1.6 1.6 0.00 0.05 0.05 90 1007.4
20260507091942 9 223 0.0 0.0 0.00 0.05 0.05 90 1007.4
20260507091439 9 320 0.0 1.6 0.00 0.05 0.05 89 1007.8
20260507090934 9 293 1.6 1.6 0.00 0.05 0.05 90 1007.8
20260507090430 10 194 0.0 0.0 0.00 0.05 0.05 90 1007.6
20260507085927 10 200 0.0 0.0 0.00 0.05 0.05 89 1007.5
20260507085424 10 219 0.0 0.0 0.00 0.05 0.05 90 1007.5
20260507084921 9 353 1.6 4.8 0.00 0.05 0.05 91 1007.6
20260507084418 10 83 3.2 3.2 0.00 0.05 0.05 92 1007.2
20260507083915 10 271 3.2 3.2 0.00 0.05 0.05 92 1007.5
20260507083412 10 291 1.6 3.2 0.00 0.05 0.05 92 1007.1
20260507082908 10 286 1.6 1.6 0.00 0.05 0.05 92 1007.0
20260507082404 10 285 0.0 0.0 0.00 0.05 0.05 92 1007.1
20260507081901 10 103 1.6 1.6 0.00 0.05 0.05 92 1006.8
20260507081357 10 104 1.6 1.6 0.00 0.05 0.05 92 1007.1
20260507080854 10 105 0.0 0.0 0.00 0.05 0.05 91 1007.1
20260507080350 10 219 1.6 1.6 0.00 0.05 0.05 90 1007.5
20260507075846 10 207 0.0 0.0 0.18 0.05 0.05 89 1007.5
20260507075342 10 298 0.0 3.2 0.18 0.05 0.05 88 1007.0
20260507074838 10 1 1.6 6.4 0.00 0.03 0.03 87 1007.0
20260507074336 10 203 3.2 4.8 0.00 0.03 0.03 87 1007.3
20260507073833 10 297 3.2 4.8 0.00 0.03 0.03 88 1007.0
20260507073329 10 198 0.0 4.8 0.00 0.03 0.03 88 1006.9
20260507072827 10 334 4.8 6.4 0.00 0.03 0.03 88 1006.8
20260507072324 11 195 0.0 1.6 0.00 0.03 0.03 89 1006.7
20260507071821 10 280 6.4 6.4 0.00 0.03 0.03 90 1006.6
20260507071318 10 279 1.6 3.2 0.00 0.03 0.03 92 1006.7
20260507070815 10 226 0.0 0.0 0.00 0.03 0.03 93 1006.8
20260507070312 11 225 0.0 0.0 0.00 0.03 0.03 93 1006.5
20260507065809 11 116 0.0 0.0 0.00 0.03 0.03 93 1006.3
20260507065306 11 169 0.0 0.0 0.00 0.03 0.03 93 1006.6
20260507064803 11 171 0.0 0.0 0.00 0.03 0.03 93 1006.5
20260507064301 11 181 0.0 3.2 0.00 0.03 0.03 93 1006.7
20260507063759 10 199 0.0 0.0 0.00 0.03 0.03 92 1006.5
20260507063255 10 183 0.0 0.0 0.00 0.03 0.03 92 1006.6
20260507062752 11 183 0.0 0.0 0.00 0.03 0.03 92 1006.3
20260507062249 11 186 0.0 0.0 0.00 0.03 0.03 92 1006.3
20260507061747 11 139 0.0 0.0 0.00 0.03 0.03 93 1006.3
20260507061245 11 103 0.0 0.0 0.00 0.03 0.03 94 1006.3
20260507060743 11 132 0.0 0.0 0.00 0.03 0.03 94 1006.4
20260507060239 11 231 0.0 1.6 0.00 0.03 0.03 94 1006.5
20260507055735 11 177 0.0 1.6 0.00 0.03 0.03 93 1006.6
20260507055231 11 207 0.0 1.6 0.00 0.03 0.03 93 1006.7
20260507054727 11 234 0.0 3.2 0.00 0.03 0.03 94 1006.8
20260507054224 11 35 0.0 3.2 0.00 0.03 0.03 95 1006.8
20260507053722 11 273 1.6 3.2 0.00 0.03 0.03 96 1006.6
20260507053219 12 186 0.0 3.2 0.00 0.03 0.03 96 1006.8
20260507052718 12 278 0.0 0.0 0.00 0.03 0.03 96 1006.7
20260507052214 12 240 1.6 3.2 0.00 0.03 0.03 96 1006.4
20260507051712 12 227 1.6 3.2 0.00 0.03 0.03 96 1006.5
20260507051209 12 294 1.6 3.2 0.00 0.03 0.03 96 1006.7
20260507050705 12 43 3.2 3.2 0.00 0.03 0.03 96 1006.7
20260507050202 13 73 0.0 4.8 0.00 0.03 0.03 96 1006.9
20260507045659 13 344 1.6 9.7 0.00 0.03 0.03 96 1007.0
20260507045156 13 131 1.6 3.2 0.00 0.03 0.03 96 1006.7
20260507044652 13 217 0.0 0.0 0.00 0.03 0.03 96 1006.6
20260507044149 13 206 0.0 0.0 0.00 0.03 0.03 96 1006.4
20260507043645 13 209 0.0 1.6 0.00 0.03 0.03 95 1006.5
20260507043142 13 244 1.6 6.4 0.00 0.03 0.03 95 1006.6
20260507042639 13 192 3.2 3.2 0.00 0.03 0.03 95 1006.2
20260507042134 13 5 4.8 9.7 0.13 0.03 0.03 95 1006.3
20260507041631 14 215 1.6 6.4 0.00 0.00 0.00 95 1006.3
20260507041127 14 220 1.6 4.8 0.00 0.00 0.00 96 1006.4
20260507040625 14 188 0.0 1.6 0.00 0.00 0.00 96 1006.5
20260507040121 14 206 0.0 0.0 0.00 0.00 0.00 97 1006.4
20260507035617 14 183 4.8 4.8 0.00 0.58 0.58 97 1006.5
20260507035113 15 207 0.0 3.2 0.00 0.58 0.58 97 1006.4
20260507034610 15 35 0.0 0.0 0.00 0.58 0.58 97 1006.2
20260507034108 15 149 1.6 4.8 0.00 0.58 0.58 97 1006.2
20260507033606 15 181 0.0 1.6 0.00 0.58 0.58 97 1006.2
20260507033103 15 205 8.0 11.3 0.00 0.58 0.58 98 1005.9
20260507032600 15 248 1.6 3.2 0.00 0.58 0.58 97 1005.8
20260507032056 15 184 4.8 11.3 0.00 0.58 0.58 98 1005.8
20260507031552 15 181 0.0 3.2 0.00 0.58 0.58 98 1005.7
20260507031050 15 188 3.2 6.4 0.00 0.58 0.58 98 1005.6
20260507030546 15 178 1.6 14.5 0.00 0.58 0.58 98 1005.4
20260507030044 15 232 0.0 4.8 0.00 0.58 0.58 98 1005.4
20260507025541 15 141 3.2 4.8 0.00 0.58 0.58 98 1005.6
20260507025038 15 185 1.6 11.3 0.00 0.58 0.58 98 1005.4
20260507024536 15 202 1.6 3.2 0.00 0.58 0.58 98 1005.6
20260507024032 15 168 4.8 11.3 0.00 0.58 0.58 98 1005.8
20260507023528 15 175 1.6 4.8 0.00 0.58 0.58 98 1005.7
20260507023026 15 149 1.6 11.3 0.00 0.58 0.58 98 1005.7
20260507022523 15 196 3.2 6.4 0.00 0.58 0.58 98 1005.6
20260507022018 15 219 4.8 12.9 0.00 0.58 0.58 98 1005.6
20260507021514 15 188 1.6 9.7 0.00 0.58 0.58 98 1005.6
20260507021011 15 194 1.6 6.4 0.00 0.58 0.58 98 1005.6
20260507020508 15 222 1.6 9.7 0.00 0.58 0.58 98 1005.8
20260507020005 15 166 1.6 3.2 0.00 0.58 0.58 98 1006.0
20260507015503 15 271 0.0 1.6 0.00 0.58 0.58 98 1006.0
20260507015000 15 151 0.0 6.4 0.00 0.58 0.58 98 1005.9
20260507014457 15 145 3.2 6.4 0.00 0.58 0.58 98 1005.8
20260507013953 15 173 0.0 3.2 0.00 0.58 0.58 98 1006.0
20260507013449 15 20 6.4 6.4 0.00 0.58 0.58 98 1005.8
20260507012947 15 263 3.2 6.4 0.00 0.58 0.58 98 1005.8
20260507012444 15 187 0.0 6.4 0.00 0.58 0.58 98 1006.1
20260507011940 15 123 3.2 4.8 0.00 0.58 0.58 98 1005.9
20260507011437 15 209 0.0 1.6 0.00 0.58 0.58 98 1006.1
20260507010932 15 186 6.4 9.7 0.00 0.58 0.58 98 1006.0
20260507010427 15 182 1.6 6.4 0.00 0.58 0.58 98 1006.1
20260507005924 15 176 6.4 6.4 0.00 0.58 0.58 98 1006.1
20260507005422 15 159 0.0 3.2 0.00 0.58 0.58 98 1006.2
20260507004918 15 202 4.8 11.3 0.00 0.58 0.58 98 1006.0
20260507004415 15 167 6.4 9.7 0.00 0.58 0.58 98 1005.9
20260507003912 15 200 1.6 4.8 0.00 0.58 0.58 98 1006.0
20260507003407 15 197 0.0 3.2 0.00 0.58 0.58 98 1006.0
20260507002903 15 92 1.6 3.2 0.00 0.58 0.58 98 1005.8
20260507002359 15 182 1.6 9.7 0.00 0.58 0.58 98 1005.9
20260507001856 15 169 1.6 9.7 0.00 0.58 0.58 98 1005.8
20260507001353 15 208 6.4 17.7 0.00 0.58 0.58 98 1005.7
20260507000850 15 185 8.0 11.3 0.00 0.58 0.58 98 1005.6
20260507000345 15 157 1.6 12.9 0.00 0.58 0.58 98 1005.5
20260506235842 15 215 1.6 4.8 0.18 0.58 0.58 98 1005.5
20260506235338 15 132 0.0 4.8 0.18 0.58 0.58 98 1005.7
20260506234829 15 212 6.4 11.3 0.00 0.56 0.56 98 1005.8
20260506234327 15 228 3.2 9.7 0.00 0.56 0.56 97 1005.6
20260506233824 15 232 8.0 9.7 0.18 0.56 0.56 97 1005.7
20260506233320 15 234 1.6 3.2 0.48 0.56 0.56 97 1005.7
20260506232817 15 211 4.8 9.7 0.61 0.53 0.53 97 1005.6
20260506232312 15 127 1.6 6.4 0.30 0.46 0.46 97 1005.9
20260506231809 15 199 4.8 4.8 0.13 0.43 0.43 97 1005.8
20260506231307 15 148 0.0 1.6 0.00 0.41 0.41 97 1005.7
20260506230805 15 191 0.0 0.0 0.00 0.41 0.41 97 1006.0
20260506230301 15 188 1.6 9.7 0.00 0.41 0.41 97 1006.0
20260506225757 15 193 0.0 4.8 0.00 0.41 0.41 97 1006.0
20260506225254 15 216 0.0 4.8 0.00 0.41 0.41 97 1006.0
20260506224745 15 208 1.6 9.7 0.00 0.41 0.41 97 1005.9
20260506224243 15 195 3.2 16.1 0.00 0.41 0.41 96 1005.9
20260506223738 15 190 4.8 12.9 0.18 0.41 0.41 96 1005.7
20260506223234 15 200 0.0 11.3 0.30 0.41 0.41 96 1006.0
20260506222731 15 99 1.6 4.8 0.13 0.38 0.38 96 1006.0
20260506222227 15 190 1.6 12.9 0.00 0.36 0.36 95 1006.0
20260506221725 15 208 8.0 11.3 0.00 0.36 0.36 95 1006.1
20260506221223 15 185 1.6 12.9 0.00 0.36 0.36 95 1006.1
20260506220720 15 197 11.3 16.1 0.00 0.36 0.36 96 1006.0
20260506220214 15 188 11.3 14.5 0.00 0.36 0.36 96 1006.1
20260506215711 15 203 1.6 4.8 0.00 0.36 0.36 96 1006.1
20260506215207 15 235 9.7 11.3 0.00 0.36 0.36 96 1006.5
20260506214704 15 219 4.8 12.9 0.00 0.36 0.36 96 1006.2
20260506214201 15 214 6.4 6.4 0.18 0.36 0.36 96 1006.4
20260506213700 15 204 3.2 6.4 0.18 0.36 0.36 96 1006.4
20260506213156 15 68 0.0 11.3 0.00 0.33 0.33 96 1006.7
20260506212653 15 160 6.4 6.4 0.00 0.33 0.33 96 1006.6